Daikoku — JD3247 — position and weather

sailwx.info

Track history (hours):
 
Tides and Currents Weather Stations Pressure Air Temp Water Temp Dewpoint Dewpoint Depression Visibility Wind Speed Wind Dir Waves Ship Positions

Daikoku

Last reported at 2014-Jul-23 19:28 UTC. Time now 2014-Jul-23 19:45 UTC.
Position N 35°33' E 139°53'.

Length 95 m; draft 3.9 m.

Type: Cargo ship. MMSI: 431003009.

Date/timePositionNaut miles runAvg speedWind from/ knotsBaromVisibWave heightAir tempDewpointWater temp
2014-Jul-23 19:28N 35°33' E 139°53'0 0.0
2014-Jul-23 18:25N 35°33' E 139°53'0 0.0
2014-Jul-23 17:28N 35°33' E 139°53'0 0.0
2014-Jul-23 16:28N 35°33' E 139°53'0 0.0
2014-Jul-23 15:22N 35°33' E 139°53'0 0.0
2014-Jul-23 14:31N 35°33' E 139°53'0 0.0
2014-Jul-23 13:31N 35°33' E 139°53'0 0.0
2014-Jul-23 12:31N 35°33' E 139°53'0 0.0
2014-Jul-23 11:28N 35°33' E 139°53'1 1.4
2014-Jul-23 10:33N 35°32' E 139°53'1212.3
2014-Jul-23 09:34N 35°22' E 139°45'1211.8
2014-Jul-23 08:34N 35°10' E 139°46'1312.9
2014-Jul-23 07:33N 34°59' E 139°37'1413.7
2014-Jul-23 06:32N 34°51' E 139°23'44 3.3
2014-Jul-22 17:13N 35°02' E 138°30'36 7.7
2014-Jul-22 12:32N 34°47' E 139°10'1510.6
2014-Jul-22 11:06N 34°56' E 139°25'6 9.7
2014-Jul-22 10:31N 34°59' E 139°31'9 9.8
2014-Jul-22 09:33N 35°05' E 139°40'1111.4
2014-Jul-22 08:34N 35°15' E 139°46'1211.9
2014-Jul-22 07:33N 35°27' E 139°42'0 0.4
2014-Jul-22 06:33N 35°27' E 139°41'4 3.9
2014-Jul-22 05:31N 35°24' E 139°45'0 0.0
2014-Jul-22 04:31N 35°24' E 139°45'0 0.0
2014-Jul-22 03:31N 35°24' E 139°45'0 0.0
2014-Jul-22 02:31N 35°24' E 139°45'0 0.0
2014-Jul-22 01:31N 35°24' E 139°45'0 0.0
2014-Jul-22 00:31N 35°24' E 139°45'0 0.0
2014-Jul-21 23:31N 35°24' E 139°45'0 0.1
2014-Jul-21 22:31N 35°24' E 139°45'0 0.1
2014-Jul-21 21:31N 35°24' E 139°45'0 0.0
2014-Jul-21 20:31N 35°24' E 139°45'0 0.0
2014-Jul-21 20:16N 35°24' E 139°45'0 0.0
2014-Jul-21 19:31N 35°24' E 139°45'0 0.0
2014-Jul-21 18:31N 35°24' E 139°45'0 0.0
2014-Jul-21 17:31N 35°24' E 139°45'0 0.0
2014-Jul-21 16:31N 35°24' E 139°45'0 0.0
2014-Jul-21 15:31N 35°24' E 139°45'3 3.2
2014-Jul-21 14:31N 35°24' E 139°41'0 0.0
2014-Jul-21 13:32N 35°24' E 139°41'1 1.2
2014-Jul-21 12:33N 35°23' E 139°42'1312.7
2014-Jul-21 11:33N 35°11' E 139°46'1413.6
2014-Jul-21 10:34N 34°59' E 139°38'26 0.7
2014-Jul-19 18:33N 34°48' E 139°10'1211.0
2014-Jul-19 17:27N 34°55' E 139°22'1010.7
2014-Jul-19 16:31N 35°00' E 139°32'1212.3
2014-Jul-19 15:34N 35°07' E 139°44'1212.0
2014-Jul-19 14:34N 35°19' E 139°43'6 5.1
2014-Jul-19 13:28N 35°24' E 139°41'0 0.0
2014-Jul-19 12:31N 35°24' E 139°41'3 2.7
2014-Jul-19 11:33N 35°22' E 139°42'1111.0
2014-Jul-19 10:33N 35°11' E 139°47'1010.2
2014-Jul-19 09:34N 35°02' E 139°43'1312.8
2014-Jul-19 08:32N 34°56' E 139°29'22410.2
2014-Jul-18 10:31N 34°21' E 134°60'1111.6
2014-Jul-18 09:33N 34°29' E 135°09'1313.0
2014-Jul-18 08:33N 34°39' E 135°18'2 2.1
2014-Jul-18 07:31N 34°41' E 135°17'1 0.6
2014-Jul-18 06:30N 34°41' E 135°17'0 0.0
2014-Jul-18 05:33N 34°41' E 135°17'3 3.2
2014-Jul-18 04:32N 34°40' E 135°14'0 0.0
2014-Jul-18 03:26N 34°40' E 135°14'0 0.0
2014-Jul-18 02:32N 34°40' E 135°14'0 0.1
2014-Jul-18 01:25N 34°40' E 135°14'2 1.9
2014-Jul-18 00:33N 34°40' E 135°15'2 1.4
2014-Jul-17 23:23N 34°41' E 135°17'0 0.0
2014-Jul-17 22:29N 34°41' E 135°17'0 0.0
2014-Jul-17 21:29N 34°41' E 135°17'0 0.0
2014-Jul-17 20:23N 34°41' E 135°17'2 1.9
2014-Jul-17 19:33N 34°40' E 135°18'8 7.6
2014-Jul-17 18:33N 34°33' E 135°15'7 7.0
2014-Jul-17 17:33N 34°28' E 135°09'1312.6
2014-Jul-17 16:33N 34°18' E 134°59'1312.7
2014-Jul-17 15:32N 34°06' E 135°00'214 9.2
2014-Jul-16 16:25N 34°50' E 139°13'2110.9
2014-Jul-16 14:28N 35°02' E 139°35'1010.7
2014-Jul-16 13:33N 35°08' E 139°44'1010.2
2014-Jul-16 12:33N 35°18' E 139°44'6 6.1
2014-Jul-16 11:31N 35°24' E 139°41'0 0.4
2014-Jul-16 10:33N 35°24' E 139°40'3 3.1
2014-Jul-16 09:33N 35°23' E 139°44'0 0.0
2014-Jul-16 08:33N 35°22' E 139°44'3 3.3
2014-Jul-16 07:33N 35°26' E 139°43'2 2.0
2014-Jul-16 06:32N 35°26' E 139°41'0 0.0
2014-Jul-16 05:32N 35°26' E 139°41'0 0.0
2014-Jul-16 04:32N 35°26' E 139°41'1 0.8
2014-Jul-16 03:33N 35°27' E 139°42'4 3.8
2014-Jul-16 02:32N 35°29' E 139°45'2 2.3
2014-Jul-16 01:33N 35°27' E 139°45'1111.2
2014-Jul-16 00:33N 35°16' E 139°46'1211.7
2014-Jul-15 23:33N 35°04' E 139°44'1212.5
2014-Jul-15 22:33N 34°56' E 139°32'228 6.1
2014-Jul-14 09:19N 34°19' E 134°59'811.0
2014-Jul-14 08:33N 34°26' E 135°04'1111.3
2014-Jul-14 07:33N 34°34' E 135°14'7 6.3
2014-Jul-14 06:25N 34°41' E 135°16'1 1.0
2014-Jul-14 05:34N 34°40' E 135°15'1 0.8
2014-Jul-14 04:33N 34°40' E 135°14'0 0.4
2014-Jul-14 03:28N 34°40' E 135°14'0 0.0
2014-Jul-14 02:28N 34°40' E 135°14'0 0.0
2014-Jul-14 01:28N 34°40' E 135°14'0 0.0
2014-Jul-14 00:29N 34°40' E 135°14'2 1.8
2014-Jul-13 23:28N 34°41' E 135°12'0 0.0
2014-Jul-13 22:28N 34°41' E 135°12'0 0.0
2014-Jul-13 21:28N 34°41' E 135°12'0 0.0
2014-Jul-13 20:28N 34°41' E 135°12'  
Track history (hours):
 
Tides and Currents Weather Stations Pressure Air Temp Water Temp Dewpoint Dewpoint Depression Visibility Wind Speed Wind Dir Waves Ship Positions

Daikoku

Last reported at 2014-Jul-23 19:28 UTC. Time now 2014-Jul-23 19:45 UTC.
Position N 35°33' E 139°53'.

Length 95 m; draft 3.9 m.

Type: Cargo ship. MMSI: 431003009.

Date/timePositionNaut miles runAvg speedWind from/ knotsBaromVisibWave heightAir tempDewpointWater temp
2014-Jul-23 19:28N 35°33' E 139°53'0 0.0
2014-Jul-23 18:25N 35°33' E 139°53'0 0.0
2014-Jul-23 17:28N 35°33' E 139°53'0 0.0
2014-Jul-23 16:28N 35°33' E 139°53'0 0.0
2014-Jul-23 15:22N 35°33' E 139°53'0 0.0
2014-Jul-23 14:31N 35°33' E 139°53'0 0.0
2014-Jul-23 13:31N 35°33' E 139°53'0 0.0
2014-Jul-23 12:31N 35°33' E 139°53'0 0.0
2014-Jul-23 11:28N 35°33' E 139°53'1 1.4
2014-Jul-23 10:33N 35°32' E 139°53'1212.3
2014-Jul-23 09:34N 35°22' E 139°45'1211.8
2014-Jul-23 08:34N 35°10' E 139°46'1312.9
2014-Jul-23 07:33N 34°59' E 139°37'1413.7
2014-Jul-23 06:32N 34°51' E 139°23'44 3.3
2014-Jul-22 17:13N 35°02' E 138°30'36 7.7
2014-Jul-22 12:32N 34°47' E 139°10'1510.6
2014-Jul-22 11:06N 34°56' E 139°25'6 9.7
2014-Jul-22 10:31N 34°59' E 139°31'9 9.8
2014-Jul-22 09:33N 35°05' E 139°40'1111.4
2014-Jul-22 08:34N 35°15' E 139°46'1211.9
2014-Jul-22 07:33N 35°27' E 139°42'0 0.4
2014-Jul-22 06:33N 35°27' E 139°41'4 3.9
2014-Jul-22 05:31N 35°24' E 139°45'0 0.0
2014-Jul-22 04:31N 35°24' E 139°45'0 0.0
2014-Jul-22 03:31N 35°24' E 139°45'0 0.0
2014-Jul-22 02:31N 35°24' E 139°45'0 0.0
2014-Jul-22 01:31N 35°24' E 139°45'0 0.0
2014-Jul-22 00:31N 35°24' E 139°45'0 0.0
2014-Jul-21 23:31N 35°24' E 139°45'0 0.1
2014-Jul-21 22:31N 35°24' E 139°45'0 0.1
2014-Jul-21 21:31N 35°24' E 139°45'0 0.0
2014-Jul-21 20:31N 35°24' E 139°45'0 0.0
2014-Jul-21 20:16N 35°24' E 139°45'0 0.0
2014-Jul-21 19:31N 35°24' E 139°45'0 0.0
2014-Jul-21 18:31N 35°24' E 139°45'0 0.0
2014-Jul-21 17:31N 35°24' E 139°45'0 0.0
2014-Jul-21 16:31N 35°24' E 139°45'0 0.0
2014-Jul-21 15:31N 35°24' E 139°45'3 3.2
2014-Jul-21 14:31N 35°24' E 139°41'0 0.0
2014-Jul-21 13:32N 35°24' E 139°41'1 1.2
2014-Jul-21 12:33N 35°23' E 139°42'1312.7
2014-Jul-21 11:33N 35°11' E 139°46'1413.6
2014-Jul-21 10:34N 34°59' E 139°38'26 0.7
2014-Jul-19 18:33N 34°48' E 139°10'1211.0
2014-Jul-19 17:27N 34°55' E 139°22'1010.7
2014-Jul-19 16:31N 35°00' E 139°32'1212.3
2014-Jul-19 15:34N 35°07' E 139°44'1212.0
2014-Jul-19 14:34N 35°19' E 139°43'6 5.1
2014-Jul-19 13:28N 35°24' E 139°41'0 0.0
2014-Jul-19 12:31N 35°24' E 139°41'3 2.7
2014-Jul-19 11:33N 35°22' E 139°42'1111.0
2014-Jul-19 10:33N 35°11' E 139°47'1010.2
2014-Jul-19 09:34N 35°02' E 139°43'1312.8
2014-Jul-19 08:32N 34°56' E 139°29'22410.2
2014-Jul-18 10:31N 34°21' E 134°60'1111.6
2014-Jul-18 09:33N 34°29' E 135°09'1313.0
2014-Jul-18 08:33N 34°39' E 135°18'2 2.1
2014-Jul-18 07:31N 34°41' E 135°17'1 0.6
2014-Jul-18 06:30N 34°41' E 135°17'0 0.0
2014-Jul-18 05:33N 34°41' E 135°17'3 3.2
2014-Jul-18 04:32N 34°40' E 135°14'0 0.0
2014-Jul-18 03:26N 34°40' E 135°14'0 0.0
2014-Jul-18 02:32N 34°40' E 135°14'0 0.1
2014-Jul-18 01:25N 34°40' E 135°14'2 1.9
2014-Jul-18 00:33N 34°40' E 135°15'2 1.4
2014-Jul-17 23:23N 34°41' E 135°17'0 0.0
2014-Jul-17 22:29N 34°41' E 135°17'0 0.0
2014-Jul-17 21:29N 34°41' E 135°17'0 0.0
2014-Jul-17 20:23N 34°41' E 135°17'2 1.9
2014-Jul-17 19:33N 34°40' E 135°18'8 7.6
2014-Jul-17 18:33N 34°33' E 135°15'7 7.0
2014-Jul-17 17:33N 34°28' E 135°09'1312.6
2014-Jul-17 16:33N 34°18' E 134°59'1312.7
2014-Jul-17 15:32N 34°06' E 135°00'214 9.2
2014-Jul-16 16:25N 34°50' E 139°13'2110.9
2014-Jul-16 14:28N 35°02' E 139°35'1010.7
2014-Jul-16 13:33N 35°08' E 139°44'1010.2
2014-Jul-16 12:33N 35°18' E 139°44'6 6.1
2014-Jul-16 11:31N 35°24' E 139°41'0 0.4
2014-Jul-16 10:33N 35°24' E 139°40'3 3.1
2014-Jul-16 09:33N 35°23' E 139°44'0 0.0
2014-Jul-16 08:33N 35°22' E 139°44'3 3.3
2014-Jul-16 07:33N 35°26' E 139°43'2 2.0
2014-Jul-16 06:32N 35°26' E 139°41'0 0.0
2014-Jul-16 05:32N 35°26' E 139°41'0 0.0
2014-Jul-16 04:32N 35°26' E 139°41'1 0.8
2014-Jul-16 03:33N 35°27' E 139°42'4 3.8
2014-Jul-16 02:32N 35°29' E 139°45'2 2.3
2014-Jul-16 01:33N 35°27' E 139°45'1111.2
2014-Jul-16 00:33N 35°16' E 139°46'1211.7
2014-Jul-15 23:33N 35°04' E 139°44'1212.5
2014-Jul-15 22:33N 34°56' E 139°32'228 6.1
2014-Jul-14 09:19N 34°19' E 134°59'811.0
2014-Jul-14 08:33N 34°26' E 135°04'1111.3
2014-Jul-14 07:33N 34°34' E 135°14'7 6.3
2014-Jul-14 06:25N 34°41' E 135°16'1 1.0
2014-Jul-14 05:34N 34°40' E 135°15'1 0.8
2014-Jul-14 04:33N 34°40' E 135°14'0 0.4
2014-Jul-14 03:28N 34°40' E 135°14'0 0.0
2014-Jul-14 02:28N 34°40' E 135°14'0 0.0
2014-Jul-14 01:28N 34°40' E 135°14'0 0.0
2014-Jul-14 00:29N 34°40' E 135°14'2 1.8
2014-Jul-13 23:28N 34°41' E 135°12'0 0.0
2014-Jul-13 22:28N 34°41' E 135°12'0 0.0
2014-Jul-13 21:28N 34°41' E 135°12'0 0.0
2014-Jul-13 20:28N 34°41' E 135°12'  

Dump ship's entire track history